Wind_Speed
11 10 10 10 10 10 10 9 9 9 9 8 8 7 8 8 9 9 8 8 8 7 7 7 7 8 8 8 8 7 7 8 8 8 8 8 8 8 8 7 7 7 7 6
11 11 11 11 10 10 10 10 9 10 10 9 8 8 8 8 9 9 9 8 7 7 7 7 7 8 8 8 7 7 7 7 7 7 8 8 8 7 7 7 7 6 6 6
12 12 12 12 11 11 11 11 11 11 10 10 9 8 9 8 9 8 8 8 8 7 7 7 8 8 7 8 7 7 6 7 7 7 7 7 7 7 6 6 6 6 6 6
14 14 14 14 13 13 12 12 12 12 12 11 10 10 9 9 9 9 8 8 8 8 7 8 8 8 7 7 7 6 7 7 7 7 7 7 7 6 6 6 6 6 6 5
15 15 15 15 14 14 13 13 13 13 13 13 12 11 9 9 9 9 8 8 8 8 8 8 8 8 7 7 7 7 7 7 7 7 7 7 7 6 6 5 5 5 5 5
16 16 16 16 16 16 15 15 15 15 15 14 13 13 11 10 9 9 9 8 9 8 8 8 8 8 8 8 7 7 7 7 7 7 7 7 7 6 6 6 6 6 5 5
17 17 17 17 17 16 16 16 16 16 16 15 14 14 11 10 10 10 10 9 9 9 9 8 8 9 8 8 7 7 7 7 7 7 7 8 7 7 7 7 6 6 6 6
16 17 17 17 17 17 16 16 17 17 17 16 15 15 12 11 11 12 11 11 10 10 10 10 10 10 9 8 8 8 8 8 8 8 8 8 7 7 7 7 7 7 7 7
16 16 17 17 17 18 18 18 17 18 18 17 17 16 14 13 12 13 13 12 11 11 11 11 11 10 9 9 8 8 9 8 8 8 9 8 7 7 7 7 8 8 8 8
17 17 17 17 18 18 19 19 19 19 20 19 18 17 15 14 14 13 13 13 13 12 12 12 12 11 10 9 9 9 9 8 8 8 8 8 7 8 7 7 7 7 8 8
18 18 18 18 18 19 20 20 20 20 21 21 19 18 16 14 14 14 14 15 14 14 13 13 13 12 11 10 10 10 9 9 9 8 8 8 8 8 8 8 8 8 8 9
19 19 19 19 19 20 21 22 22 22 22 21 20 18 16 16 16 15 16 16 16 15 15 14 13 13 12 11 11 10 10 10 10 10 10 10 10 10 10 9 9 9 9 9
20 20 20 21 21 21 22 23 23 23 23 22 21 19 17 17 17 17 17 17 17 16 15 15 14 14 13 12 12 12 12 12 11 11 11 11 11 11 11 11 11 11 11 10
21 22 22 22 21 21 22 23 23 24 24 23 22 20 18 18 18 18 18 18 18 18 17 17 16 15 15 14 13 13 13 13 12 12 12 12 12 12 12 12 12 12 12 11
22 23 22 22 22 22 22 23 23 23 24 24 22 21 19 19 20 20 19 19 19 18 18 17 17 16 15 15 14 14 14 14 13 13 13 13 13 13 13 13 13 13 12 12
23 23 23 23 22 23 23 22 23 23 23 23 23 22 20 21 21 21 21 21 20 20 19 18 17 16 16 16 16 16 15 15 15 14 14 14 14 14 15 14 14 14 13 13
24 24 24 23 23 24 23 22 24 24 23 23 23 22 21 22 22 21 21 22 22 22 21 20 19 18 18 17 17 18 17 17 16 16 15 15 15 15 16 15 15 15 14 14
24 24 25 24 24 25 23 22 23 24 23 24 24 23 22 22 22 21 21 22 23 23 22 20 20 20 20 19 18 18 18 18 18 17 17 17 16 16 16 16 15 15 15 15
24 25 26 26 26 25 23 22 23 25 24 24 24 23 23 22 22 22 23 23 23 23 23 23 22 21 21 21 20 20 20 20 20 19 19 18 18 18 17 17 17 16 16 16
25 25 26 27 27 26 24 23 24 25 25 24 24 24 23 22 23 23 23 24 24 24 23 23 23 23 23 22 21 22 21 21 21 21 21 20 20 20 19 18 18 18 17 17
25 26 26 27 27 26 25 25 25 25 25 25 24 24 23 23 23 23 23 23 24 25 24 24 24 24 24 23 23 23 22 23 23 23 23 23 22 22 21 21 20 19 19 19
25 26 26 26 27 25 24 25 25 25 25 25 24 24 24 24 25 24 24 24 25 25 25 25 24 24 25 25 25 25 25 25 24 24 24 25 24 24 24 24 23 22 22 22
26 26 26 26 26 26 25 25 25 25 25 25 25 25 25 25 25 25 24 24 25 25 25 25 25 25 25 25 26 26 26 26 25 24 24 25 26 25 25 25 24 24 24 23
26 27 27 26 26 27 26 26 26 26 25 25 27 27 27 27 27 26 25 25 25 25 25 25 26 26 26 26 27 27 27 27 26 26 25 26 26 26 26 26 25 25 25 25
25 27 28 27 26 26 26 26 26 26 27 27 27 28 28 28 28 27 26 26 26 26 26 26 26 26 27 27 27 27 28 28 28 27 27 27 27 27 27 27 27 27 27 27
25 27 28 27 27 27 26 27 27 27 27 27 27 28 28 28 28 28 27 27 27 27 27 26 26 27 27 27 28 28 28 28 28 28 28 28 28 28 28 28 28 28 28 28
Wind_Direction
271 270 273 273 270 267 266 268 271 276 277 276 280 286 285 285 285 286 289 292 295 296 298 304 309 314 314 310 308 307 305 308 308 307 307 310 311 305 298 296 295 291 290 287
266 267 268 268 266 266 266 269 274 278 279 280 282 285 286 284 284 287 288 289 291 292 296 301 306 314 316 314 310 308 308 309 310 308 309 312 312 307 296 293 296 295 292 289
266 264 264 264 265 265 268 270 272 276 278 278 281 280 280 283 283 286 288 288 290 291 294 301 304 306 310 313 310 306 305 306 312 311 311 314 313 307 295 292 293 294 296 292
264 262 262 263 262 262 265 267 270 273 276 277 278 278 278 280 282 285 289 289 291 293 294 298 300 302 303 308 308 304 304 305 309 315 317 318 316 308 297 296 294 294 297 296
264 262 262 262 262 261 262 262 266 269 274 275 274 275 277 280 280 282 286 289 290 291 294 296 295 296 298 301 301 301 303 304 309 310 313 313 310 306 298 293 289 292 298 298
264 264 263 262 262 261 262 262 265 267 270 271 271 274 277 277 279 278 279 284 289 291 292 293 293 293 293 294 296 298 301 302 302 304 307 307 304 301 297 292 288 292 298 302
265 264 263 263 262 261 263 264 268 268 269 272 272 271 278 279 277 276 276 280 286 290 290 290 290 291 289 288 290 293 295 294 293 296 299 300 300 297 291 289 287 292 295 296
264 263 263 262 262 263 264 264 267 270 271 272 272 271 275 279 276 273 273 277 282 287 288 289 290 290 287 282 283 290 294 291 288 291 294 296 295 293 286 286 285 291 292 292
267 264 263 262 261 260 261 262 265 268 270 272 271 271 270 273 274 272 272 275 280 284 287 287 286 286 283 278 277 284 291 291 286 287 290 287 286 287 287 286 285 287 289 290
266 265 263 264 262 259 261 263 262 264 267 268 269 268 268 267 272 272 270 272 275 280 283 282 281 281 280 276 273 277 283 287 286 286 288 287 287 285 287 288 287 285 287 290
268 266 263 262 264 263 261 261 263 264 266 268 270 266 268 267 268 267 266 268 273 277 278 276 277 278 279 276 274 275 276 280 283 282 281 281 284 285 284 286 286 286 288 289
270 268 264 262 263 263 262 261 262 262 264 267 270 269 268 266 266 266 264 265 267 271 274 272 272 274 275 272 270 272 275 277 280 280 278 279 279 282 282 279 282 286 287 289
271 269 267 264 263 263 261 261 261 261 263 265 267 267 267 265 264 265 264 265 267 269 271 271 271 275 274 272 269 270 273 274 276 278 277 277 278 280 278 277 280 282 283 283
272 271 270 269 268 266 263 261 260 260 261 262 264 266 265 264 263 263 263 263 265 267 268 268 268 270 271 271 270 269 269 271 274 275 276 276 277 280 278 276 277 279 282 281
271 271 271 271 269 265 263 260 259 260 260 261 261 262 261 262 260 260 263 263 266 268 269 266 264 266 269 270 270 268 267 267 271 271 271 271 272 274 274 274 274 276 278 278
270 270 271 271 270 266 263 262 262 261 261 260 260 260 260 259 258 259 262 263 267 268 269 266 263 263 266 269 269 268 266 264 265 264 265 267 268 270 272 272 271 274 275 274
269 270 270 270 269 268 266 264 264 264 263 262 260 260 260 259 257 257 259 262 263 265 264 264 262 261 264 267 267 267 267 265 262 261 262 265 266 269 271 270 271 273 273 272
269 269 269 270 268 268 270 266 264 264 264 263 262 261 260 258 257 256 259 262 262 263 263 263 262 262 264 265 265 266 266 266 262 260 261 262 264 269 270 270 271 271 271 271
269 270 269 269 269 269 266 266 265 265 265 264 263 262 262 260 256 258 260 262 262 260 260 262 261 260 261 263 264 265 265 266 264 263 263 262 263 265 268 271 271 270 269 270
267 268 269 270 269 268 267 266 266 264 264 263 263 263 261 259 258 258 260 261 262 260 259 260 260 261 261 262 264 266 266 266 265 264 263 263 263 263 267 271 270 267 266 267
267 267 268 269 269 269 268 269 268 266 263 263 264 263 262 261 260 259 261 263 263 262 261 261 261 261 261 263 265 265 267 267 266 264 264 264 263 264 266 268 269 269 268 268
269 268 268 268 268 269 269 268 268 268 264 263 262 261 260 260 260 260 262 263 265 264 263 263 263 263 262 263 265 265 266 266 267 266 264 263 262 264 266 268 269 269 270 268
268 269 269 269 269 268 269 269 268 267 264 261 260 261 261 261 260 261 263 265 266 266 266 265 266 266 265 265 265 265 265 266 267 266 265 264 264 264 266 268 269 269 269 269
268 268 268 268 268 269 269 269 268 266 265 263 262 261 261 262 261 262 264 265 266 267 267 266 266 266 267 267 267 266 266 266 265 265 265 265 266 265 266 266 268 270 270 271
269 268 267 267 265 265 266 265 263 263 263 263 263 263 262 263 262 263 263 264 266 267 267 267 266 267 268 268 268 267 267 265 264 264 265 265 266 266 266 267 268 270 271 272
269 268 268 268 267 265 263 262 263 263 263 264 264 263 263 263 262 262 262 262 263 266 267 268 268 268 268 268 267 266 267 265 264 264 265 266 267 267 267 267 268 269 269 270
Height
5856 5858 5857 5858 5857 5858 5857 5858 5858 5858 5857 5857 5857 5856 5856 5855 5855 5855 5854 5854 5853 5852 5852 5850 5850 5849 5848 5847 5846 5845 5845 5844 5843 5842 5842 5841 5840 5839 5838 5837 5837 5837 5836 5836
5855 5855 5855 5855 5855 5855 5855 5856 5856 5856 5855 5855 5855 5855 5854 5854 5853 5853 5852 5852 5851 5851 5850 5849 5848 5847 5846 5845 5844 5844 5843 5842 5842 5841 5840 5839 5838 5837 5837 5836 5835 5835 5835 5834
5852 5853 5852 5852 5853 5853 5853 5853 5854 5854 5853 5853 5853 5853 5853 5852 5851 5851 5851 5850 5850 5849 5848 5848 5847 5846 5845 5844 5843 5842 5841 5841 5840 5839 5838 5837 5836 5836 5835 5835 5834 5834 5833 5833
5848 5849 5849 5849 5850 5850 5850 5851 5851 5851 5850 5850 5851 5851 5851 5850 5850 5849 5849 5848 5848 5847 5846 5846 5845 5844 5843 5842 5842 5841 5840 5839 5838 5837 5837 5836 5835 5834 5834 5833 5833 5832 5832 5832
5845 5845 5846 5846 5847 5847 5848 5848 5848 5848 5847 5848 5848 5848 5849 5848 5848 5847 5847 5846 5846 5845 5844 5844 5843 5842 5841 5841 5840 5839 5838 5838 5837 5836 5835 5834 5834 5833 5832 5832 5831 5831 5831 5831
5841 5842 5842 5843 5843 5844 5844 5844 5844 5844 5844 5845 5845 5845 5846 5846 5846 5845 5845 5845 5844 5843 5842 5842 5841 5840 5839 5839 5838 5838 5837 5836 5835 5834 5834 5833 5832 5831 5831 5831 5830 5830 5830 5829
5838 5838 5838 5839 5839 5840 5841 5841 5841 5841 5841 5841 5842 5842 5844 5843 5843 5843 5843 5842 5842 5841 5840 5839 5839 5838 5837 5837 5836 5836 5835 5834 5833 5833 5832 5831 5831 5830 5830 5829 5829 5828 5828 5828
5833 5834 5834 5835 5835 5836 5836 5837 5838 5838 5837 5838 5838 5838 5841 5840 5840 5840 5840 5840 5839 5838 5838 5837 5836 5835 5835 5834 5834 5833 5833 5832 5832 5831 5830 5829 5829 5828 5828 5828 5827 5827 5826 5826
5829 5830 5830 5830 5831 5832 5832 5832 5833 5833 5833 5833 5834 5835 5836 5836 5836 5836 5836 5836 5836 5836 5835 5834 5834 5833 5832 5832 5831 5831 5830 5830 5829 5829 5828 5827 5827 5826 5826 5826 5825 5825 5825 5824
5824 5825 5826 5826 5827 5827 5828 5828 5829 5829 5828 5828 5829 5830 5832 5833 5833 5833 5833 5833 5833 5833 5832 5831 5831 5830 5830 5829 5829 5828 5828 5827 5826 5826 5826 5825 5825 5824 5824 5823 5823 5823 5822 5822
5819 5820 5821 5822 5822 5822 5823 5824 5823 5824 5824 5824 5824 5828 5828 5828 5829 5829 5829 5829 5829 5829 5829 5828 5828 5827 5827 5826 5826 5826 5825 5825 5824 5824 5823 5823 5822 5822 5822 5821 5821 5821 5820 5819
5815 5815 5815 5817 5817 5817 5817 5818 5819 5820 5819 5819 5820 5824 5822 5823 5824 5824 5825 5825 5825 5825 5825 5825 5824 5824 5824 5823 5823 5823 5822 5822 5821 5821 5820 5820 5820 5820 5819 5819 5819 5818 5818 5817
5809 5810 5810 5811 5814 5813 5812 5812 5812 5813 5814 5814 5815 5819 5818 5818 5819 5819 5820 5820 5821 5821 5821 5821 5821 5820 5820 5820 5820 5819 5819 5819 5818 5818 5817 5817 5817 5817 5816 5816 5816 5816 5815 5815
5803 5804 5805 5806 5806 5806 5806 5806 5807 5807 5807 5808 5810 5812 5813 5813 5814 5814 5815 5815 5816 5816 5816 5816 5816 5816 5816 5816 5816 5815 5815 5815 5815 5814 5814 5814 5813 5813 5813 5813 5813 5812 5812 5812
5797 5798 5798 5799 5799 5799 5800 5800 5801 5801 5802 5803 5805 5806 5807 5808 5808 5809 5809 5810 5811 5811 5811 5812 5812 5812 5812 5811 5811 5811 5811 5811 5811 5810 5810 5810 5810 5810 5809 5809 5809 5809 5809 5808
5791 5792 5792 5793 5792 5792 5793 5794 5795 5795 5796 5797 5798 5800 5801 5801 5802 5803 5804 5804 5805 5805 5806 5806 5807 5807 5807 5807 5807 5807 5807 5806 5806 5806 5806 5806 5806 5806 5805 5805 5805 5805 5805 5805
5785 5786 5786 5786 5786 5786 5787 5789 5789 5789 5790 5791 5792 5795 5795 5795 5795 5796 5797 5798 5799 5799 5800 5800 5801 5801 5801 5802 5802 5802 5802 5802 5801 5802 5802 5802 5802 5801 5801 5801 5801 5801 5801 5801
5779 5779 5779 5779 5781 5780 5784 5783 5783 5783 5784 5784 5785 5787 5788 5789 5789 5790 5791 5792 5793 5793 5794 5794 5795 5795 5796 5796 5796 5796 5796 5796 5796 5796 5797 5797 5797 5797 5797 5796 5796 5796 5796 5796
5772 5772 5772 5773 5773 5773 5776 5776 5776 5776 5777 5778 5779 5780 5781 5782 5783 5784 5785 5786 5786 5787 5787 5788 5788 5789 5790 5790 5790 5790 5790 5790 5790 5791 5791 5791 5791 5792 5792 5792 5792 5791 5791 5791
5766 5766 5766 5765 5765 5767 5770 5769 5769 5770 5771 5772 5772 5773 5774 5775 5777 5779 5779 5779 5779 5780 5780 5780 5781 5782 5783 5783 5783 5784 5784 5784 5784 5785 5785 5785 5786 5786 5786 5786 5786 5786 5786 5786
5759 5758 5758 5758 5758 5760 5762 5762 5762 5764 5765 5765 5765 5766 5767 5768 5770 5772 5772 5772 5772 5772 5773 5773 5774 5774 5775 5775 5776 5777 5777 5778 5778 5778 5778 5779 5779 5779 5780 5780 5780 5780 5780 5780
5752 5752 5752 5752 5752 5755 5755 5755 5756 5756 5756 5757 5758 5759 5760 5761 5762 5763 5764 5764 5765 5765 5765 5765 5766 5766 5767 5768 5769 5770 5770 5770 5770 5771 5771 5771 5772 5772 5773 5773 5773 5774 5774 5774
5744 5745 5745 5746 5747 5747 5746 5747 5747 5748 5749 5750 5750 5751 5752 5754 5755 5755 5756 5756 5757 5757 5757 5758 5758 5759 5759 5759 5760 5761 5762 5762 5762 5763 5763 5764 5764 5765 5765 5766 5766 5767 5767 5767
5738 5737 5737 5737 5738 5738 5738 5738 5739 5740 5741 5742 5742 5743 5744 5745 5746 5747 5748 5748 5748 5749 5749 5749 5750 5750 5751 5751 5751 5752 5753 5753 5754 5754 5755 5756 5756 5756 5757 5758 5758 5759 5759 5759
5730 5729 5729 5729 5730 5731 5731 5730 5731 5732 5733 5733 5734 5735 5735 5736 5738 5738 5739 5739 5739 5740 5740 5741 5741 5742 5742 5742 5743 5743 5744 5744 5745 5746 5747 5747 5748 5748 5749 5749 5750 5751 5751 5751
5723 5722 5722 5722 5723 5723 5723 5723 5723 5724 5724 5725 5726 5726 5727 5728 5728 5729 5730 5730 5731 5731 5732 5732 5732 5733 5733 5733 5734 5734 5735 5735 5736 5737 5738 5738 5739 5739 5740 5740 5741 5742 5742 5742